TimeCST,TemperatureF,Dew PointF,Humidity,Sea Level PressureIn,VisibilityMPH,Wind Direction,Wind SpeedMPH,Gust SpeedMPH,PrecipitationIn,Events,Conditions,WindDirDegrees,DateUTC
12:55 AM,43.2,43.2,100,30.29,10.0,NE,6.9,-,N/A,,Clear,50,2012-12-14 06:55:00
1:55 AM,43.2,43.2,100,30.28,10.0,ENE,5.8,-,N/A,,Clear,60,2012-12-14 07:55:00
2:55 AM,42.8,42.8,100,30.27,10.0,ENE,8.1,-,N/A,,Clear,70,2012-12-14 08:55:00
3:14 AM,42.8,42.8,100,30.27,10.0,ENE,8.1,-,N/A,,Scattered Clouds,70,2012-12-14 09:14:00
3:15 AM,42.8,42.8,100,30.27,10.0,ENE,8.1,-,N/A,,Mostly Cloudy,70,2012-12-14 09:15:00
3:23 AM,42.8,42.8,100,30.28,10.0,ENE,5.8,-,N/A,,Mostly Cloudy,60,2012-12-14 09:23:00
3:46 AM,42.8,42.8,100,30.27,10.0,ENE,9.2,-,N/A,,Overcast,60,2012-12-14 09:46:00
3:55 AM,43.2,43.2,100,30.28,8.0,NE,5.8,-,N/A,,Overcast,50,2012-12-14 09:55:00
4:55 AM,43.2,43.2,100,30.29,6.0,NE,5.8,-,N/A,,Overcast,50,2012-12-14 10:55:00
5:55 AM,43.0,43.0,100,30.29,6.0,NE,6.9,-,N/A,,Overcast,50,2012-12-14 11:55:00
6:55 AM,43.0,43.0,100,30.31,6.0,NE,6.9,-,N/A,,Overcast,50,2012-12-14 12:55:00
7:55 AM,43.5,43.5,100,30.33,7.0,ENE,4.6,-,N/A,,Overcast,60,2012-12-14 13:55:00
8:21 AM,44.6,44.6,100,30.33,10.0,East,6.9,-,N/A,,Overcast,80,2012-12-14 14:21:00
8:33 AM,44.6,44.6,100,30.33,9.0,NE,5.8,-,N/A,,Overcast,50,2012-12-14 14:33:00
8:42 AM,44.6,44.6,100,30.34,9.0,East,5.8,-,N/A,,Overcast,90,2012-12-14 14:42:00
8:55 AM,44.6,44.6,100,30.34,10.0,ENE,6.9,-,0.00,,Overcast,70,2012-12-14 14:55:00
8:57 AM,44.6,44.6,100,30.34,10.0,East,6.9,-,N/A,,Overcast,80,2012-12-14 14:57:00
9:42 AM,44.6,44.6,100,30.33,10.0,East,10.4,-,N/A,Rain,Light Rain,80,2012-12-14 15:42:00
9:52 AM,46.4,46.4,100,30.33,10.0,East,8.1,-,N/A,,Overcast,80,2012-12-14 15:52:00
9:55 AM,45.7,45.7,100,30.33,10.0,East,8.1,-,0.00,,Overcast,80,2012-12-14 15:55:00
10:55 AM,47.5,47.3,99,30.30,10.0,ESE,6.9,-,N/A,,Overcast,110,2012-12-14 16:55:00
10:57 AM,48.2,48.2,100,30.30,10.0,East,9.2,-,N/A,,Overcast,100,2012-12-14 16:57:00
11:54 AM,48.2,46.4,93,30.30,10.0,ENE,4.6,-,N/A,,Overcast,60,2012-12-14 17:54:00
11:55 AM,48.7,47.1,94,30.30,10.0,ENE,4.6,-,N/A,,Overcast,60,2012-12-14 17:55:00
12:54 PM,50.0,46.4,87,30.25,10.0,Calm,Calm,-,N/A,,Overcast,0,2012-12-14 18:54:00
12:55 PM,49.8,47.1,90,30.25,10.0,Variable,3.5,-,N/A,,Overcast,0,2012-12-14 18:55:00
1:16 PM,50.0,48.2,94,30.25,10.0,Variable,5.8,-,N/A,,Light Drizzle,0,2012-12-14 19:16:00
1:26 PM,50.0,48.2,94,30.23,10.0,ENE,5.8,-,N/A,,Overcast,60,2012-12-14 19:26:00
1:55 PM,50.4,47.7,90,30.24,10.0,NNE,5.8,-,0.00,,Overcast,30,2012-12-14 19:55:00
2:55 PM,50.2,47.1,89,30.25,10.0,Calm,Calm,-,N/A,,Overcast,0,2012-12-14 20:55:00
3:14 PM,50.0,48.2,94,30.24,10.0,NNW,3.5,-,N/A,,Light Drizzle,330,2012-12-14 21:14:00
3:16 PM,50.0,48.2,94,30.24,10.0,NW,3.5,-,N/A,,Overcast,320,2012-12-14 21:16:00
3:37 PM,50.0,46.4,87,30.22,10.0,Calm,Calm,-,N/A,Rain,Light Rain,0,2012-12-14 21:37:00
3:43 PM,50.0,46.4,87,30.23,10.0,North,3.5,-,N/A,,Overcast,350,2012-12-14 21:43:00
3:55 PM,50.0,47.3,90,30.23,10.0,Calm,Calm,-,0.00,,Overcast,0,2012-12-14 21:55:00
4:55 PM,49.8,47.3,91,30.23,10.0,Calm,Calm,-,N/A,,Overcast,0,2012-12-14 22:55:00
5:55 PM,49.1,47.1,93,30.22,10.0,Calm,Calm,-,N/A,,Overcast,0,2012-12-14 23:55:00
6:55 PM,48.9,47.3,94,30.23,10.0,Calm,Calm,-,N/A,,Overcast,0,2012-12-15 00:55:00
7:55 PM,45.9,45.9,100,30.21,10.0,NNE,3.5,-,N/A,,Overcast,20,2012-12-15 01:55:00
8:37 PM,46.4,46.4,100,30.18,10.0,ENE,4.6,-,N/A,,Mostly Cloudy,70,2012-12-15 02:37:00
8:55 PM,45.5,45.5,100,30.18,10.0,East,3.5,-,N/A,,Scattered Clouds,80,2012-12-15 02:55:00
9:55 PM,47.3,47.3,100,30.17,10.0,East,5.8,-,N/A,,Overcast,80,2012-12-15 03:55:00
10:55 PM,46.8,46.8,100,30.19,10.0,North,5.8,-,N/A,,Overcast,360,2012-12-15 04:55:00
11:09 PM,46.4,46.4,100,30.18,10.0,North,6.9,-,N/A,,Overcast,10,2012-12-15 05:09:00
11:19 PM,46.4,46.4,100,30.18,10.0,North,6.9,-,N/A,,Overcast,360,2012-12-15 05:19:00
11:35 PM,46.4,46.4,100,30.17,10.0,North,5.8,-,N/A,,Overcast,360,2012-12-15 05:35:00
11:55 PM,46.4,46.4,100,30.16,10.0,NNE,4.6,-,N/A,,Overcast,30,2012-12-15 05:55:00